OBJECT L, 61237

Orbit data source: Space-Track

You're viewing an Uncataloged Satellite

Recently launched and/or uncataloged satellites may have evolving metadata. Metadata may include but not limited to: Owner, Maufacturer, Bus, Motor, and Mission.

OBJECT L, 61237 is a satellite owned by Changzheng H. (CN) in SSO that was launched on Tue, 24 Sep 2024 UTC launched from the Yellow Sea Launch Area, China (YSLA). Unknown objects in Earth's orbit typically refer to objects detected orbiting the Earth but have not yet been identified or cataloged. These objects could be anything from previously untracked satellites, spent rocket stages, debris from satellite collisions, or even natural meteoroids temporarily captured by Earth's gravity.

Not visible in the next 10 days
Identifier
61237, 2024-173L
Orbit
SSO
Last TLE update
9 hours ago
Origin
Manufacturer
Changzheng H.
Mission
Spacecraft
Bus & Motor
Unknown
Mass
500 kg wet, 500 kg dry
Launch date (UTC)
2024-09-24 (10 months ago)
Launch vehicle
Unknown
Launch site
Yellow Sea Launch Area, China (YSLA)
Object type
Unknown
Shape & HBR
Unknown
Radar Cross Section
Large (>1 m²)

Expand to show TLE details & history

TLE from 9 hours ago
0 OBJECT L
1 61237U 24173L   25200.25155789  .00057410  00000-0  44654-3 0  9990
2 61237  97.6492 298.5384 0040129 307.1454  52.6144 15.70471263 46263
Epoch: 2025-07-19T06:02Z
TLE epoch observation values (Epoch: 2025-07-19T06:02:14.601Z)
Latitude
-0.00009°
Longitude
-89.31377°
Altitude
344.354 km
Speed
7.712 km/s
True Right ascension
19h 54m 09s
True Declination
0° 00' 00"
Sunlit
Object was in full shadow at epoch
Visualization orbit readout
Latitude
-80.84179°
Longitude
35.15276°
Altitude
365.164 km
Speed
7.701 km/s
Apparent Right ascension
15h 29m 28s
Apparent Declination
-70° 17' 08"
Sunlit
Object is in daylight
Visualization observer readout
Local Sidereal Time
03:38:46
Azimuth
178.45° S
Elevation
-59.606°
Doppler factor
1
Orbital elements
Apogee altitude
381.476 km
Perigee altitude
327.442 km
Semi-major axis
6,732.596 km
Eccentricity
0.00401
Inclination
97.6492°
RAAN
298.5384°
Arg. of periapsis
307.1454°
True anomaly
52.98089°
Mean anomaly
52.6144°
Eccentric anomaly
52.79753°
Mean motion
3.92889 °/min
Orbital period
91.63 mins
BSTAR
0.00044654
Loading maneuver chart data...
Loading SW <> Apogee altitude chart data...
Loading historical data...
Loading historical data...
Loading historical data...
Loading historical data...
Loading historical data...
Loading historical data...
Loading historical data...
|